| time (UTC) | temp F | wind direction | speed knots | gust knots | rain 1hr in | rain 24hr in | rain mn in | humidity % | barometer mb |
| 20260502215046 | 48 | 168 | 1.7 | 1.7 | 0.00 | 0.01 | 0.01 | 96 | 1011.0 |
| 20260502214543 | 49 | 168 | 2.6 | 2.6 | 0.00 | 0.01 | 0.01 | 96 | 1011.0 |
| 20260502214041 | 49 | 168 | 0.0 | 0.0 | 0.00 | 0.01 | 0.01 | 96 | 1011.0 |
| 20260502213537 | 49 | 168 | 0.0 | 0.0 | 0.00 | 0.01 | 0.01 | 96 | 1011.0 |
| 20260502213035 | 49 | 168 | 1.7 | 1.7 | 0.00 | 0.01 | 0.01 | 96 | 1011.0 |
| 20260502212534 | 49 | 168 | 1.7 | 1.7 | 0.00 | 0.01 | 0.01 | 96 | 1010.6 |
| 20260502212031 | 49 | 168 | 3.5 | 4.3 | 0.00 | 0.01 | 0.01 | 95 | 1010.6 |
| 20260502211527 | 49 | 168 | 0.0 | 0.0 | 0.00 | 0.01 | 0.01 | 95 | 1010.6 |
| 20260502211024 | 49 | 168 | 1.7 | 1.7 | 0.00 | 0.01 | 0.01 | 95 | 1011.0 |
| 20260502210521 | 49 | 168 | 2.6 | 2.6 | 0.00 | 0.01 | 0.01 | 95 | 1011.0 |
| 20260502210018 | 49 | 168 | 3.5 | 3.5 | 0.00 | 0.01 | 0.01 | 94 | 1011.0 |
| 20260502205515 | 49 | 168 | 1.7 | 1.7 | 0.00 | 0.01 | 0.01 | 93 | 1011.0 |
| 20260502205012 | 49 | 168 | 1.7 | 1.7 | 0.00 | 0.01 | 0.01 | 94 | 1011.0 |
| 20260502204509 | 49 | 168 | 0.0 | 0.0 | 0.00 | 0.01 | 0.01 | 94 | 1011.0 |
| 20260502204007 | 49 | 168 | 0.0 | 0.0 | 0.00 | 0.01 | 0.01 | 94 | 1011.0 |
| 20260502203503 | 49 | 168 | 1.7 | 1.7 | 0.00 | 0.01 | 0.01 | 95 | 1011.0 |
| 20260502203000 | 49 | 168 | 1.7 | 1.7 | 0.00 | 0.01 | 0.01 | 95 | 1011.3 |
| 20260502202456 | 49 | 168 | 1.7 | 1.7 | 0.00 | 0.01 | 0.01 | 95 | 1011.3 |
| 20260502201955 | 49 | 174 | 4.3 | 4.3 | 0.00 | 0.01 | 0.01 | 95 | 1011.3 |
| 20260502201450 | 49 | 174 | 4.3 | 4.3 | 0.00 | 0.01 | 0.01 | 95 | 1011.3 |
| 20260502200947 | 49 | 168 | 4.3 | 4.3 | 0.00 | 0.01 | 0.01 | 95 | 1011.3 |
| 20260502200443 | 49 | 168 | 2.6 | 2.6 | 0.00 | 0.01 | 0.01 | 96 | 1011.3 |
| 20260502195941 | 49 | 168 | 1.7 | 1.7 | 0.00 | 0.01 | 0.01 | 96 | 1011.3 |
| 20260502195438 | 49 | 168 | 3.5 | 3.5 | 0.00 | 0.01 | 0.01 | 96 | 1011.3 |
| 20260502194934 | 49 | 174 | 3.5 | 3.5 | 0.00 | 0.01 | 0.01 | 96 | 1011.3 |
| 20260502194431 | 49 | 174 | 2.6 | 2.6 | 0.00 | 0.01 | 0.01 | 96 | 1011.7 |
| 20260502193927 | 49 | 168 | 1.7 | 1.7 | 0.00 | 0.01 | 0.01 | 96 | 1011.7 |
| 20260502193424 | 49 | 168 | 5.2 | 6.1 | 0.00 | 0.01 | 0.01 | 96 | 1011.7 |
| 20260502192919 | 49 | 162 | 3.5 | 3.5 | 0.00 | 0.01 | 0.01 | 96 | 1011.7 |
| 20260502192417 | 49 | 198 | 1.7 | 1.7 | 0.00 | 0.01 | 0.01 | 96 | 1011.7 |
| 20260502191914 | 49 | 192 | 3.5 | 3.5 | 0.00 | 0.01 | 0.01 | 96 | 1011.7 |
| 20260502191412 | 49 | 180 | 5.2 | 5.2 | 0.00 | 0.01 | 0.01 | 96 | 1012.0 |
| 20260502190909 | 49 | 168 | 4.3 | 5.2 | 0.00 | 0.01 | 0.01 | 96 | 1012.0 |
| 20260502190406 | 49 | 174 | 3.5 | 3.5 | 0.00 | 0.01 | 0.01 | 96 | 1012.0 |
| 20260502185902 | 49 | 168 | 4.3 | 4.3 | 0.00 | 0.01 | 0.01 | 96 | 1012.0 |
| 20260502185357 | 49 | 192 | 7.0 | 7.8 | 0.00 | 0.01 | 0.01 | 96 | 1012.0 |
| 20260502184855 | 49 | 174 | 4.3 | 5.2 | 0.00 | 0.01 | 0.01 | 97 | 1012.0 |
| 20260502184350 | 48 | 186 | 7.8 | 7.8 | 0.00 | 0.01 | 0.01 | 97 | 1012.3 |
| 20260502183847 | 48 | 192 | 7.8 | 9.6 | 0.00 | 0.01 | 0.01 | 97 | 1012.3 |
| 20260502183343 | 48 | 168 | 4.3 | 4.3 | 0.00 | 0.01 | 0.01 | 97 | 1012.3 |
| 20260502182838 | 48 | 155 | 5.2 | 6.1 | 0.00 | 0.01 | 0.01 | 97 | 1012.3 |
| 20260502182334 | 48 | 168 | 4.3 | 5.2 | 0.00 | 0.01 | 0.01 | 98 | 1012.3 |
| 20260502181831 | 48 | 155 | 5.2 | 5.2 | 0.00 | 0.01 | 0.01 | 97 | 1012.3 |
| 20260502181330 | 48 | 162 | 6.1 | 7.0 | 0.00 | 0.01 | 0.01 | 98 | 1012.0 |
| 20260502180827 | 48 | 168 | 5.2 | 5.2 | 0.00 | 0.01 | 0.01 | 97 | 1012.0 |
| 20260502180324 | 48 | 168 | 4.3 | 4.3 | 0.00 | 0.01 | 0.01 | 97 | 1012.0 |
| 20260502170243 | 48 | 204 | 4.3 | 5.2 | 0.00 | 0.00 | 0.00 | 97 | 1012.3 |
| 20260502164231 | 48 | 168 | 5.2 | 5.2 | 0.00 | 0.00 | 0.00 | 95 | 1012.7 |
| 20260502163726 | 48 | 174 | 3.5 | 3.5 | 0.00 | 0.00 | 0.00 | 95 | 1012.7 |
| 20260502163223 | 48 | 180 | 3.5 | 3.5 | 0.00 | 0.00 | 0.00 | 96 | 1012.7 |
| 20260502162720 | 48 | 180 | 1.7 | 1.7 | 0.00 | 0.00 | 0.00 | 95 | 1012.7 |
| 20260502162217 | 48 | 180 | 3.5 | 3.5 | 0.00 | 0.00 | 0.00 | 96 | 1012.7 |
| 20260502161714 | 48 | 180 | 1.7 | 1.7 | 0.00 | 0.00 | 0.00 | 95 | 1012.7 |
| 20260502161210 | 48 | 222 | 1.7 | 1.7 | 0.00 | 0.00 | 0.00 | 95 | 1012.7 |
| 20260502160709 | 48 | 222 | 4.3 | 5.2 | 0.00 | 0.00 | 0.00 | 95 | 1012.7 |
| 20260502160208 | 48 | 192 | 3.5 | 3.5 | 0.00 | 0.00 | 0.00 | 95 | 1012.7 |
| 20260502152121 | 49 | 156 | 9.6 | 10.4 | 0.00 | 0.00 | 0.00 | 92 | 1013.0 |
| 20260502151618 | 49 | 168 | 10.4 | 11.3 | 0.00 | 0.00 | 0.00 | 92 | 1013.0 |
| 20260502151115 | 49 | 180 | 5.2 | 6.1 | 0.00 | 0.00 | 0.00 | 91 | 1013.0 |
| 20260502150613 | 49 | 168 | 3.5 | 3.5 | 0.00 | 0.00 | 0.00 | 90 | 1013.0 |
| 20260502150109 | 49 | 174 | 3.5 | 3.5 | 0.00 | 0.00 | 0.00 | 90 | 1013.0 |
| 20260502130457 | 50 | 251 | 1.7 | 1.7 | 0.00 | 0.00 | 0.00 | 88 | 1013.0 |
| 20260502123440 | 50 | 302 | 1.7 | 1.7 | 0.00 | 0.00 | 0.00 | 86 | 1013.4 |
| 20260502122937 | 50 | 273 | 1.7 | 1.7 | 0.00 | 0.00 | 0.00 | 86 | 1013.7 |
| 20260502122433 | 50 | 272 | 7.8 | 7.8 | 0.00 | 0.00 | 0.00 | 86 | 1013.7 |
| 20260502121932 | 50 | 244 | 1.7 | 1.7 | 0.00 | 0.00 | 0.00 | 86 | 1013.7 |
| 20260502121428 | 50 | 263 | 2.6 | 2.6 | 0.00 | 0.00 | 0.00 | 85 | 1013.4 |
| 20260502120926 | 50 | 216 | 3.5 | 3.5 | 0.00 | 0.00 | 0.00 | 86 | 1013.4 |
| 20260502120422 | 50 | 216 | 3.5 | 3.5 | 0.00 | 0.00 | 0.00 | 86 | 1013.4 |
| 20260502115919 | 50 | 216 | 3.5 | 3.5 | 0.00 | 0.00 | 0.00 | 85 | 1013.0 |
| 20260502115416 | 50 | 216 | 1.7 | 1.7 | 0.00 | 0.00 | 0.00 | 85 | 1013.0 |
| 20260502114912 | 50 | 213 | 1.7 | 1.7 | 0.00 | 0.00 | 0.00 | 86 | 1013.0 |
| 20260502114409 | 50 | 213 | 1.7 | 1.7 | 0.00 | 0.00 | 0.00 | 87 | 1012.7 |
| 20260502113906 | 49 | 213 | 0.0 | 0.0 | 0.00 | 0.00 | 0.00 | 88 | 1012.7 |
| 20260502113404 | 49 | 213 | 3.5 | 4.3 | 0.00 | 0.00 | 0.00 | 89 | 1012.7 |
| 20260502112902 | 49 | 213 | 0.0 | 0.0 | 0.00 | 0.00 | 0.00 | 90 | 1013.0 |
| 20260502112400 | 49 | 213 | 2.6 | 2.6 | 0.00 | 0.00 | 0.00 | 90 | 1013.0 |
| 20260502111857 | 49 | 213 | 3.5 | 3.5 | 0.00 | 0.00 | 0.00 | 90 | 1013.0 |
| 20260502111354 | 48 | 213 | 3.5 | 3.5 | 0.00 | 0.00 | 0.00 | 90 | 1013.0 |
| 20260502110851 | 48 | 213 | 1.7 | 1.7 | 0.00 | 0.00 | 0.00 | 90 | 1013.0 |
| 20260502110349 | 48 | 213 | 1.7 | 1.7 | 0.00 | 0.00 | 0.00 | 91 | 1013.0 |
| 20260502105846 | 48 | 213 | 3.5 | 3.5 | 0.00 | 0.00 | 0.00 | 90 | 1012.7 |
| 20260502105343 | 48 | 204 | 5.2 | 5.2 | 0.00 | 0.00 | 0.00 | 90 | 1012.7 |
| 20260502104841 | 48 | 204 | 3.5 | 3.5 | 0.00 | 0.00 | 0.00 | 91 | 1012.7 |
| 20260502104338 | 48 | 222 | 2.6 | 2.6 | 0.00 | 0.00 | 0.00 | 91 | 1012.7 |
| 20260502103835 | 47 | 222 | 4.3 | 4.3 | 0.00 | 0.00 | 0.00 | 91 | 1012.7 |
| 20260502103333 | 47 | 222 | 3.5 | 3.5 | 0.00 | 0.00 | 0.00 | 91 | 1012.7 |
| 20260502102830 | 47 | 222 | 5.2 | 5.2 | 0.00 | 0.00 | 0.00 | 92 | 1012.7 |
| 20260502102326 | 47 | 222 | 3.5 | 3.5 | 0.00 | 0.00 | 0.00 | 92 | 1012.7 |
| 20260502101824 | 47 | 222 | 3.5 | 4.3 | 0.00 | 0.00 | 0.00 | 91 | 1012.7 |
| 20260502101322 | 47 | 222 | 4.3 | 5.2 | 0.00 | 0.00 | 0.00 | 91 | 1012.7 |
| 20260502100820 | 48 | 222 | 3.5 | 3.5 | 0.00 | 0.00 | 0.00 | 89 | 1012.7 |
| 20260502100319 | 48 | 222 | 3.5 | 4.3 | 0.00 | 0.00 | 0.00 | 89 | 1012.7 |
| 20260502091253 | 48 | 216 | 6.1 | 6.1 | 0.00 | 0.00 | 0.00 | 88 | 1012.7 |
| 20260502090750 | 48 | 210 | 5.2 | 6.1 | 0.00 | 0.00 | 0.00 | 88 | 1012.7 |
| 20260502090247 | 48 | 210 | 7.0 | 7.8 | 0.00 | 0.00 | 0.00 | 87 | 1012.7 |
| 20260502071147 | 48 | 201 | 4.3 | 4.3 | 0.00 | 0.00 | 0.00 | 83 | 1012.7 |
| 20260502070645 | 47 | 207 | 5.2 | 5.2 | 0.00 | 0.00 | 0.00 | 84 | 1012.7 |
| 20260502070143 | 47 | 240 | 4.3 | 4.3 | 0.00 | 0.00 | 0.00 | 85 | 1012.7 |
| 20260502065641 | 48 | 240 | 3.5 | 4.3 | 0.00 | 0.00 | 0.00 | 84 | 1012.7 |
| 20260502065138 | 48 | 240 | 4.3 | 4.3 | 0.00 | 0.00 | 0.00 | 85 | 1012.7 |
| 20260502064637 | 48 | 240 | 3.5 | 3.5 | 0.00 | 0.00 | 0.00 | 84 | 1012.7 |
| 20260502064134 | 48 | 240 | 4.3 | 4.3 | 0.00 | 0.00 | 0.00 | 84 | 1012.7 |
| 20260502063632 | 48 | 240 | 4.3 | 4.3 | 0.00 | 0.00 | 0.00 | 84 | 1012.7 |
| 20260502063129 | 47 | 240 | 4.3 | 4.3 | 0.00 | 0.00 | 0.00 | 83 | 1012.7 |
| 20260502062626 | 47 | 258 | 3.5 | 3.5 | 0.00 | 0.00 | 0.00 | 82 | 1012.7 |
| 20260502062124 | 48 | 258 | 2.6 | 2.6 | 0.00 | 0.00 | 0.00 | 81 | 1012.7 |
| 20260502061622 | 48 | 259 | 2.6 | 2.6 | 0.00 | 0.00 | 0.00 | 81 | 1012.7 |
| 20260502061119 | 48 | 260 | 3.5 | 3.5 | 0.00 | 0.00 | 0.00 | 80 | 1012.7 |
| 20260502060619 | 48 | 237 | 2.6 | 2.6 | 0.00 | 0.00 | 0.00 | 80 | 1012.7 |
| 20260502060116 | 48 | 237 | 4.3 | 4.3 | 0.00 | 0.00 | 0.00 | 79 | 1012.7 |
| 20260502055614 | 48 | 237 | 5.2 | 5.2 | 0.00 | 0.00 | 0.00 | 80 | 1013.0 |
| 20260502055112 | 48 | 246 | 5.2 | 5.2 | 0.00 | 0.00 | 0.00 | 78 | 1013.0 |
| 20260502054611 | 48 | 257 | 5.2 | 5.2 | 0.00 | 0.00 | 0.00 | 79 | 1013.0 |
| 20260502054107 | 49 | 258 | 5.2 | 5.2 | 0.00 | 0.00 | 0.00 | 79 | 1013.0 |
| 20260502053604 | 49 | 222 | 3.5 | 3.5 | 0.00 | 0.00 | 0.00 | 79 | 1013.0 |
| 20260502053102 | 49 | 245 | 5.2 | 5.2 | 0.00 | 0.00 | 0.00 | 79 | 1013.0 |
| 20260502052600 | 49 | 244 | 5.2 | 5.2 | 0.00 | 0.00 | 0.00 | 79 | 1013.0 |
| 20260502052058 | 49 | 243 | 4.3 | 5.2 | 0.00 | 0.00 | 0.00 | 78 | 1013.0 |
| 20260502051556 | 49 | 246 | 5.2 | 6.1 | 0.00 | 0.00 | 0.00 | 77 | 1013.4 |
| 20260502051053 | 49 | 234 | 4.3 | 5.2 | 0.00 | 0.00 | 0.00 | 77 | 1013.4 |
| 20260502050549 | 49 | 232 | 5.2 | 6.1 | 0.00 | 0.00 | 0.00 | 78 | 1013.4 |
| 20260502050046 | 49 | 228 | 5.2 | 5.2 | 0.00 | 0.00 | 0.00 | 77 | 1013.7 |
| 20260502045543 | 49 | 234 | 4.3 | 4.3 | 0.00 | 0.00 | 0.00 | 77 | 1013.7 |
| 20260502045040 | 49 | 240 | 5.2 | 6.1 | 0.00 | 0.00 | 0.00 | 79 | 1013.7 |
| 20260502044536 | 49 | 243 | 4.3 | 4.3 | 0.00 | 0.00 | 0.00 | 79 | 1013.4 |
| 20260502044033 | 49 | 245 | 1.7 | 1.7 | 0.00 | 0.00 | 0.00 | 80 | 1013.4 |
| 20260502043531 | 49 | 244 | 3.5 | 3.5 | 0.00 | 0.00 | 0.00 | 80 | 1013.4 |
| 20260502043027 | 48 | 240 | 3.5 | 4.3 | 0.00 | 0.00 | 0.00 | 79 | 1013.4 |
| 20260502042522 | 48 | 246 | 2.6 | 2.6 | 0.00 | 0.00 | 0.00 | 81 | 1013.4 |
| 20260502042020 | 48 | 246 | 3.5 | 3.5 | 0.00 | 0.00 | 0.00 | 81 | 1013.4 |
| 20260502041518 | 48 | 246 | 3.5 | 3.5 | 0.00 | 0.00 | 0.00 | 81 | 1013.4 |
| 20260502041014 | 49 | 246 | 1.7 | 1.7 | 0.00 | 0.00 | 0.00 | 79 | 1013.4 |
| 20260502040511 | 49 | 246 | 2.6 | 2.6 | 0.00 | 0.00 | 0.00 | 77 | 1013.4 |
| 20260502040008 | 49 | 246 | 2.6 | 2.6 | 0.00 | 0.00 | 0.00 | 77 | 1013.7 |
| 20260502035503 | 49 | 258 | 3.5 | 3.5 | 0.00 | 0.00 | 0.00 | 75 | 1013.7 |
| 20260502035001 | 49 | 264 | 3.5 | 3.5 | 0.00 | 0.00 | 0.00 | 75 | 1013.7 |
| 20260502034459 | 50 | 265 | 4.3 | 4.3 | 0.00 | 0.00 | 0.00 | 74 | 1013.7 |
| 20260502033958 | 50 | 265 | 3.5 | 3.5 | 0.00 | 0.00 | 0.00 | 74 | 1013.7 |
| 20260502033455 | 50 | 258 | 4.3 | 4.3 | 0.00 | 0.00 | 0.00 | 73 | 1013.7 |
| 20260502032951 | 50 | 239 | 5.2 | 5.2 | 0.00 | 0.00 | 0.00 | 73 | 1013.7 |
| 20260502032448 | 50 | 263 | 2.6 | 2.6 | 0.00 | 0.00 | 0.00 | 73 | 1013.7 |
| 20260502031945 | 50 | 264 | 4.3 | 4.3 | 0.00 | 0.00 | 0.00 | 72 | 1013.7 |
| 20260502031443 | 50 | 268 | 5.2 | 5.2 | 0.00 | 0.00 | 0.00 | 72 | 1013.7 |
| 20260502030941 | 50 | 252 | 3.5 | 3.5 | 0.00 | 0.00 | 0.00 | 72 | 1013.7 |
| 20260502030439 | 50 | 282 | 3.5 | 4.3 | 0.00 | 0.00 | 0.00 | 72 | 1013.7 |
| 20260502025937 | 50 | 260 | 5.2 | 6.1 | 0.00 | 0.00 | 0.00 | 72 | 1013.4 |
| 20260502025433 | 50 | 276 | 7.8 | 9.6 | 0.00 | 0.00 | 0.00 | 72 | 1013.4 |
| 20260502024931 | 50 | 255 | 5.2 | 6.1 | 0.00 | 0.00 | 0.00 | 72 | 1013.4 |
| 20260502024430 | 51 | 246 | 7.0 | 7.0 | 0.00 | 0.00 | 0.00 | 72 | 1013.7 |
| 20260502023927 | 50 | 251 | 5.2 | 5.2 | 0.00 | 0.00 | 0.00 | 72 | 1013.7 |
| 20260502023425 | 50 | 250 | 7.0 | 7.0 | 0.00 | 0.00 | 0.00 | 72 | 1013.7 |
| 20260502022922 | 50 | 243 | 5.2 | 6.1 | 0.00 | 0.00 | 0.00 | 73 | 1013.0 |
| 20260502022418 | 50 | 266 | 6.1 | 7.0 | 0.00 | 0.00 | 0.00 | 73 | 1013.0 |
| 20260502021915 | 50 | 255 | 4.3 | 5.2 | 0.00 | 0.00 | 0.00 | 73 | 1013.0 |
| 20260502021413 | 50 | 254 | 7.8 | 7.8 | 0.00 | 0.00 | 0.00 | 73 | 1013.4 |
| 20260502020910 | 50 | 257 | 7.8 | 7.8 | 0.00 | 0.00 | 0.00 | 73 | 1013.4 |
| 20260502020408 | 50 | 256 | 7.0 | 7.0 | 0.00 | 0.00 | 0.00 | 74 | 1013.4 |
| 20260502015904 | 50 | 270 | 3.5 | 3.5 | 0.00 | 0.00 | 0.00 | 74 | 1013.7 |
| 20260502015401 | 50 | 269 | 4.3 | 5.2 | 0.00 | 0.00 | 0.00 | 75 | 1013.7 |
| 20260502014858 | 50 | 257 | 4.3 | 4.3 | 0.00 | 0.00 | 0.00 | 74 | 1013.7 |
| 20260502014355 | 50 | 264 | 5.2 | 5.2 | 0.00 | 0.00 | 0.00 | 74 | 1013.4 |
| 20260502013851 | 50 | 260 | 7.8 | 7.8 | 0.00 | 0.00 | 0.00 | 74 | 1013.4 |
| 20260502013347 | 50 | 252 | 4.3 | 4.3 | 0.00 | 0.00 | 0.00 | 75 | 1013.4 |
| 20260502012844 | 50 | 258 | 5.2 | 6.1 | 0.00 | 0.00 | 0.00 | 75 | 1013.4 |
| 20260502012342 | 50 | 252 | 4.3 | 5.2 | 0.00 | 0.00 | 0.00 | 75 | 1013.4 |
| 20260502011839 | 50 | 237 | 5.2 | 6.1 | 0.00 | 0.00 | 0.00 | 75 | 1013.4 |
| 20260502011335 | 50 | 259 | 7.8 | 7.8 | 0.00 | 0.00 | 0.00 | 74 | 1013.0 |
| 20260502010832 | 50 | 264 | 4.3 | 4.3 | 0.00 | 0.00 | 0.00 | 74 | 1013.0 |
| 20260502010328 | 50 | 252 | 5.2 | 6.1 | 0.00 | 0.00 | 0.00 | 74 | 1013.0 |
| 20260502005825 | 50 | 228 | 7.8 | 7.8 | 0.00 | 0.00 | 0.00 | 73 | 1013.0 |
| 20260502005324 | 51 | 233 | 5.2 | 6.1 | 0.00 | 0.00 | 0.00 | 73 | 1013.0 |
| 20260502004821 | 51 | 246 | 5.2 | 5.2 | 0.00 | 0.00 | 0.00 | 73 | 1013.0 |
| 20260502004316 | 51 | 264 | 7.8 | 7.8 | 0.00 | 0.00 | 0.00 | 73 | 1012.7 |
| 20260502003815 | 51 | 228 | 9.6 | 10.4 | 0.00 | 0.00 | 0.00 | 73 | 1012.7 |
| 20260502003311 | 50 | 244 | 7.8 | 7.8 | 0.00 | 0.00 | 0.00 | 73 | 1012.7 |
| 20260502002807 | 50 | 249 | 9.6 | 11.3 | 0.00 | 0.00 | 0.00 | 74 | 1012.7 |
| 20260502002306 | 50 | 204 | 7.0 | 7.0 | 0.00 | 0.00 | 0.00 | 74 | 1012.7 |
| 20260502001802 | 50 | 256 | 5.2 | 6.1 | 0.00 | 0.00 | 0.00 | 75 | 1012.7 |
| 20260502001300 | 50 | 246 | 5.2 | 6.1 | 0.00 | 0.00 | 0.00 | 76 | 1012.3 |
| 20260502000757 | 50 | 245 | 6.1 | 6.1 | 0.00 | 0.00 | 0.00 | 75 | 1012.3 |
| 20260502000256 | 51 | 222 | 9.6 | 9.6 | 0.00 | 0.00 | 0.00 | 74 | 1012.3 |
| 20260501235756 | 51 | 238 | 7.0 | 7.8 | 0.00 | 0.00 | 0.00 | 73 | 1011.7 |
| 20260501235252 | 51 | 222 | 7.8 | 7.8 | 0.00 | 0.00 | 0.00 | 72 | 1011.7 |
| 20260501234748 | 51 | 234 | 9.6 | 9.6 | 0.00 | 0.00 | 0.00 | 72 | 1011.7 |
| 20260501234245 | 52 | 238 | 9.6 | 9.6 | 0.00 | 0.00 | 0.00 | 71 | 1011.7 |
| 20260501233743 | 51 | 222 | 10.4 | 12.2 | 0.00 | 0.00 | 0.00 | 70 | 1011.7 |
| 20260501233241 | 51 | 222 | 5.2 | 6.1 | 0.00 | 0.00 | 0.00 | 72 | 1011.7 |
| 20260501232736 | 52 | 228 | 4.3 | 4.3 | 0.00 | 0.00 | 0.00 | 72 | 1011.7 |
| 20260501232233 | 52 | 250 | 5.2 | 5.2 | 0.00 | 0.00 | 0.00 | 70 | 1011.7 |
| 20260501231731 | 53 | 239 | 6.1 | 6.1 | 0.00 | 0.00 | 0.00 | 69 | 1011.7 |
| 20260501231229 | 53 | 232 | 6.1 | 6.1 | 0.00 | 0.00 | 0.00 | 67 | 1011.0 |
| 20260501230727 | 53 | 270 | 7.0 | 7.8 | 0.00 | 0.00 | 0.00 | 64 | 1011.0 |
| 20260501230226 | 55 | 233 | 7.8 | 7.8 | 0.00 | 0.00 | 0.00 | 61 | 1011.0 |
| 20260501225723 | 55 | 251 | 5.2 | 6.1 | 0.00 | 0.00 | 0.00 | 57 | 1011.3 |
| 20260501225220 | 55 | 246 | 5.2 | 5.2 | 0.00 | 0.00 | 0.00 | 56 | 1011.3 |
| 20260501224715 | 56 | 246 | 7.0 | 7.8 | 0.00 | 0.00 | 0.00 | 53 | 1011.3 |
| 20260501224213 | 55 | 252 | 7.0 | 7.0 | 0.00 | 0.00 | 0.00 | 51 | 1011.0 |
| 20260501223709 | 55 | 244 | 3.5 | 4.3 | 0.00 | 0.00 | 0.00 | 54 | 1011.0 |
| 20260501223206 | 55 | 237 | 7.0 | 7.0 | 0.00 | 0.00 | 0.00 | 55 | 1011.0 |
| 20260501222702 | 55 | 220 | 7.8 | 7.8 | 0.00 | 0.00 | 0.00 | 51 | 1011.0 |
| 20260501222159 | 56 | 247 | 9.6 | 10.4 | 0.00 | 0.00 | 0.00 | 44 | 1011.0 |
| 20260501221656 | 56 | 250 | 7.0 | 7.8 | 0.00 | 0.00 | 0.00 | 46 | 1011.0 |
| 20260501221153 | 56 | 234 | 7.8 | 7.8 | 0.00 | 0.00 | 0.00 | 45 | 1011.0 |
| 20260501220651 | 57 | 246 | 7.8 | 7.8 | 0.00 | 0.00 | 0.00 | 45 | 1011.0 |
| 20260501220148 | 56 | 255 | 7.0 | 7.8 | 0.00 | 0.00 | 0.00 | 46 | 1011.0 |
| 20260501215645 | 56 | 201 | 6.1 | 7.0 | 0.00 | 0.00 | 0.00 | 49 | 1011.0 |